Terminal Aerodrome Forecast
Issued by NWS

Home | Current Version | Previous Version | Text Only | Print | Product List | Glossary On
Versions: 1 2 3 4 5 6 7 8 9 10 11 12 13 14 15
000
FTUS45 KPSR 010200 AAA
TAFIPL
TAF AMD
KIPL 010243Z 0103/0124 26010KT P6SM SCT080 BKN100
     FM011000 32006KT P6SM SCT060 OVC100
     FM011600 12006KT P6SM VCSH BKN060 OVC080 PROB30 0116/0120 -SHRA
      BKN050=

USA.gov is the U.S. government's official web portal to all federal, state and local government web resources and services.